Flag for Germany Weather past 2 weeks in Rheda-Wiedenbrück, North Rhine-Westphalia, Germany

Now
50 °F

Passing clouds.


Feels Like: 48 °F
Forecast: 49 / 64 °F
Wind: 5 mph from Southwest

Location: Paderborn / Lippstadt

Current Time: Sep 4, 2015 at 12:01:40 AM

Latest Report: Sep 3, 2015 at 11:20 PM


Visibility: N/A

Pressure: 29.95 "Hg

Humidity: 100%

Dew point: 50 °F

Location of Rheda-WiedenbrückLocation

Historic Weather in Rheda-Wiedenbrück — Graph

°F

Rheda-Wiedenbrück temperature yesterday

Maximum temperature yesterday: 64 °F (at 11:20 AM)
Minimum temperature yesterday: 46 °F (at 12:50 AM)
Average temperature yesterday: 55 °F

Past Weeks' High & Low Weather Summary

 TemperatureHumidityPressure
High90 °F (Aug 30, 4:20 PM)100% (Aug 27, 7:50 PM)30.27 "Hg (Aug 27, 7:50 PM)
Low46 °F (Sep 2, 6:20 AM)27% (Aug 31, 2:50 PM)29.59 "Hg (Aug 24, 4:20 PM)
Average64 °F69%29.99 "Hg
* Reported Aug 19 10:20 PM — Sep 3 10:20 PM, Rheda-Wiedenbrück, Weather by CustomWeather, © 2015

Note: Actual official high and low records may vary slightly from our data, if they occured in-between our weather recording intervals... More about our weather records

Advertising

Rheda-Wiedenbrück weather history for previous 24 hours

 ConditionsComfort  
Time TempWeatherWind HumidityBarometerVisibility
10:20 PM
Thu, Sep 3
50 °FPassing clouds.5 mph100%29.95 "HgN/A
9:50 PM52 °FPassing clouds.3 mph100%29.98 "HgN/A
9:20 PM52 °FPassing clouds.6 mph100%29.95 "HgN/A
8:50 PM48 °FThundershowers. Scattered clouds.1 mph100%29.95 "HgN/A
8:20 PM50 °FThundershowers. Scattered clouds.2 mph100%29.92 "HgN/A
7:50 PM54 °FThundershowers. Sunny.2 mph100%29.92 "Hg10 mi
7:20 PM57 °FSunny.2 mph82%29.92 "Hg10 mi
6:50 PM61 °FPassing clouds.6 mph52%29.92 "HgN/A
6:20 PM61 °FPassing clouds.5 mph48%29.92 "HgN/A
5:50 PM63 °FPassing clouds.8 mph52%29.92 "HgN/A
5:20 PM63 °FPassing clouds.8 mph52%29.92 "HgN/A
4:50 PM61 °FPassing clouds.8 mph63%29.92 "HgN/A
4:20 PM64 °FPassing clouds.5 mph60%29.92 "HgN/A
3:50 PM61 °FPassing clouds.7 mph55%29.92 "HgN/A
3:20 PM61 °FScattered showers. Scattered clouds.10 mph63%29.92 "Hg6 mi
2:50 PM61 °FScattered showers. Partly sunny.5 mph59%29.92 "Hg6 mi
2:20 PM59 °FScattered clouds.3 mph68%29.92 "Hg6 mi
1:50 PM64 °FPassing clouds.7 mph49%29.92 "Hg3 mi
1:20 PM64 °FScattered clouds.5 mph60%29.95 "Hg3 mi
12:50 PM61 °FScattered clouds.6 mph63%29.95 "Hg3 mi
12:20 PM64 °FScattered clouds.5 mph56%29.95 "Hg3 mi
11:50 AM63 °FScattered clouds.3 mph56%29.95 "Hg3 mi
11:20 AM64 °FScattered clouds.3 mph68%29.98 "Hg3 mi
10:50 AM59 °FScattered clouds.5 mph72%29.98 "Hg3 mi
10:20 AM61 °FFog.3 mph59%29.95 "Hg3 mi
9:50 AM57 °FFog.3 mph88%29.98 "Hg3 mi
9:20 AM55 °FFog.3 mph100%29.98 "Hg3 mi
8:50 AM54 °FFog.3 mph100%29.98 "Hg3 mi
8:20 AM52 °FFog.2 mph100%29.95 "Hg1 mi
7:50 AM52 °FFog.3 mph100%29.95 "Hg1 mi
7:20 AM52 °FPassing clouds.2 mph100%29.95 "Hg4 mi
6:50 AM52 °FPassing clouds.2 mph94%29.95 "Hg4 mi
6:20 AM50 °FPassing clouds.5 mph100%29.95 "Hg4 mi
5:20 AM50 °FPassing clouds.5 mph100%29.98 "HgN/A
4:50 AM50 °FClear.2 mph100%29.98 "Hg10 mi
4:20 AM50 °FClear.5 mph100%29.98 "Hg10 mi
3:50 AM50 °FClear.2 mph100%29.98 "Hg10 mi
3:20 AM46 °FClear.2 mph100%29.98 "Hg10 mi
2:50 AM46 °FClear.2 mph100%29.98 "Hg10 mi
2:20 AM48 °FClear.2 mph100%29.98 "Hg10 mi
1:50 AM46 °FClear.2 mph100%29.98 "Hg10 mi
1:20 AM46 °FClear.1 mph100%29.98 "Hg10 mi
12:50 AM46 °FClear.1 mph100%29.98 "Hg10 mi
12:20 AM48 °FClear.1 mph100%29.98 "Hg10 mi
Weather by CustomWeather, © 2015

See weather overviewHow to use our weather pages